Weather History for Washington, NC

Change the Weather History Date:

Friday, October 4, 2013

  Actual Average (KEWN) Record (KEWN)
Temperature  
Mean Temperature 74 °F 68 °F  
Max Temperature 84 °F 78 °F 94 °F (1986)
Min Temperature 65 °F 58 °F 38 °F (1974)
Degree Days  
Heating Degree Days 0 1  
Month to date heating degree days 4  
Since 1 July heating degree days 11  
Cooling Degree Days 10 5  
Month to date cooling degree days 20  
Year to date cooling degree days 1823  
Growing Degree Days 24 (Base 50)    
Moisture  
Dew Point 65 °F    
Average Humidity 73    
Maximum Humidity 85    
Minimum Humidity 44    
Precipitation  
Precipitation 0.00 in 0.13 in 1.72 in (1962)
Month to date precipitation 0.52  
Year to date precipitation 43.21  
Snow  
Snow 0.00 in - - ()
Month to date snowfall  
Since 1 July snowfall  
Snow Depth -    
Sea Level Pressure  
Sea Level Pressure 30.11 in    
Wind  
Wind Speed 3 mph (SSW)    
Max Wind Speed 9 mph    
Max Gust Speed -    
Visibility 8 miles    
Events      
T = Trace of Precipitation, MM = Missing Value Source: NWS Daily Summary

Daily Weather History Graph

Daily Weather History Graph

Search for Another Location

Airport:

Trip Planner

Search our weather history database for the weather conditions in past years. The results will help you decide how hot, cold, wet, or windy it might be!

Date:

Astronomy

Oct. 04, 2013 Rise Set
Actual Time 7:05 AM EDT 6:47 PM EDT
Civil Twilight 6:40 AM EDT 7:12 PM EDT
Nautical Twilight 6:10 AM EDT 7:42 PM EDT
Astronomical Twilight 5:41 AM EDT 8:11 PM EDT
Moon 6:38 AM EDT (10/4) 6:29 PM EDT (10/4)
Length of Visible Light 12h 32m
Length of Day
11h 41m
Waning Crescent, 0% of the Moon is Illuminated
Oct 4
Waning Crescent
Oct 4
New
Oct 11
First Quarter
Oct 18
Full
Oct 26
Last Quarter

Hourly Weather History & Observations

Time (EDT) Temp. Heat Index Dew Point Humidity Pressure Visibility Wind Dir Wind Speed Gust Speed Precip Events Conditions
12:35 AM 69.3 °F - 64.4 °F 84% 30.13 in 10.0 mi South 3.5 mph - N/A   Clear
12:55 AM 68.5 °F - 63.7 °F 84% 30.12 in 10.0 mi South 3.5 mph - N/A   Clear
1:15 AM 68.5 °F - 63.5 °F 84% 30.12 in 10.0 mi South 3.5 mph - N/A   Clear
1:35 AM 68.0 °F - 63.0 °F 84% 30.12 in 10.0 mi Calm Calm - N/A   Clear
1:55 AM 68.0 °F - 63.0 °F 84% 30.12 in 7.0 mi South 3.5 mph - N/A   Clear
2:15 AM 68.0 °F - 63.0 °F 84% 30.12 in 7.0 mi South 3.5 mph - N/A   Clear
2:35 AM 68.0 °F - 63.0 °F 84% 30.12 in 7.0 mi Calm Calm - N/A   Clear
2:55 AM 68.0 °F - 63.0 °F 84% 30.12 in 7.0 mi Calm Calm - N/A   Clear
3:15 AM 68.0 °F - 63.0 °F 84% 30.11 in 5.0 mi Calm Calm - N/A   Clear
3:35 AM 68.0 °F - 63.0 °F 84% 30.11 in 5.0 mi Calm Calm - N/A   Clear
3:55 AM 66.7 °F - 61.9 °F 84% 30.11 in 3.0 mi Calm Calm - N/A   Scattered Clouds
4:15 AM 68.0 °F - 63.0 °F 84% 30.12 in 5.0 mi Calm Calm - N/A   Mostly Cloudy
4:35 AM 68.0 °F - 63.0 °F 84% 30.12 in 4.0 mi Calm Calm - N/A   Mostly Cloudy
4:55 AM 68.0 °F - 63.0 °F 84% 30.12 in 5.0 mi Calm Calm - N/A   Scattered Clouds
5:15 AM 67.3 °F - 62.2 °F 84% 30.12 in 4.0 mi Calm Calm - N/A   Scattered Clouds
5:35 AM 66.2 °F - 61.2 °F 84% 30.13 in 1.5 mi Calm Calm - N/A   Mostly Cloudy
5:55 AM 66.4 °F - 61.7 °F 85% 30.12 in 1.5 mi Calm Calm - N/A   Scattered Clouds
6:15 AM 65.8 °F - 61.0 °F 84% 30.13 in 1.8 mi Calm Calm - N/A   Unknown
6:35 AM 65.8 °F - 61.2 °F 85% 30.13 in 0.5 mi Calm Calm - N/A   Overcast
6:55 AM 65.5 °F - 60.8 °F 85% 30.13 in 0.5 mi Calm Calm - N/A   Overcast
7:15 AM 65.8 °F - 61.0 °F 84% 30.14 in 0.2 mi Calm Calm - N/A   Overcast
7:35 AM 65.8 °F - 61.0 °F 84% 30.14 in 0.2 mi Calm Calm - N/A   Overcast
7:55 AM 65.8 °F - 61.2 °F 85% 30.14 in 0.2 mi Calm Calm - N/A   Overcast
8:35 AM 66.7 °F - 61.9 °F 84% 30.15 in 0.8 mi Calm Calm - N/A   Overcast
8:55 AM 68.0 °F - 63.0 °F 84% 30.15 in 4.0 mi Calm Calm - N/A   Scattered Clouds
9:15 AM 70.7 °F - 65.5 °F 83% 30.15 in 10.0 mi SW 3.5 mph - N/A   Clear
9:35 AM 73.0 °F - 68.0 °F 84% 30.16 in 10.0 mi SW 3.5 mph - N/A   Clear
9:55 AM 73.6 °F - 68.2 °F 83% 30.16 in 10.0 mi SW 4.6 mph - N/A   Clear
10:15 AM 78.1 °F - 71.4 °F 80% 30.16 in 10.0 mi SW 6.9 mph - N/A   Clear
10:35 AM 78.1 °F - 70.7 °F 78% 30.15 in 10.0 mi SSW 8.1 mph - N/A   Clear
10:55 AM 78.1 °F - 69.3 °F 74% 30.15 in 10.0 mi SW 5.8 mph - N/A   Clear
11:15 AM 78.6 °F - 68.7 °F 72% 30.14 in 10.0 mi WSW 6.9 mph - N/A   Clear
11:35 AM 80.8 °F 83.9 °F 69.3 °F 68% 30.14 in 10.0 mi SSW 5.8 mph - N/A   Clear
11:55 AM 80.8 °F 83.8 °F 69.1 °F 67% 30.14 in 10.0 mi SSW 5.8 mph - N/A   Clear
12:15 PM 80.8 °F 83.2 °F 67.3 °F 63% 30.14 in 10.0 mi SW 5.8 mph - N/A   Clear
12:35 PM 83.3 °F 86.4 °F 68.2 °F 60% 30.13 in 10.0 mi WSW 4.6 mph - N/A   Clear
12:55 PM 83.1 °F 85.7 °F 67.1 °F 58% 30.12 in 10.0 mi SSW 3.5 mph - N/A   Clear
1:15 PM 83.3 °F 86.2 °F 67.8 °F 59% 30.11 in 10.0 mi SW 4.6 mph - N/A   Clear
1:35 PM 83.3 °F 85.5 °F 66.0 °F 56% 30.11 in 10.0 mi WSW 9.2 mph - N/A   Clear
1:55 PM 83.3 °F 85.3 °F 65.5 °F 55% 30.10 in 10.0 mi SW 5.8 mph - N/A   Scattered Clouds
2:15 PM 84.6 °F 86.3 °F 64.9 °F 52% 30.09 in 10.0 mi West 3.5 mph - N/A   Clear
2:35 PM 83.3 °F 85.1 °F 65.1 °F 54% 30.08 in 10.0 mi SSW 5.8 mph - N/A   Clear
2:55 PM 84.6 °F 85.2 °F 62.2 °F 47% 30.08 in 10.0 mi WSW 6.9 mph - N/A   Clear
3:15 PM 84.7 °F 85.4 °F 62.2 °F 47% 30.08 in 10.0 mi SSW 5.8 mph - N/A   Clear
3:35 PM 83.5 °F 84.1 °F 61.7 °F 48% 30.07 in 10.0 mi South 3.5 mph - N/A   Clear
3:55 PM 84.6 °F 84.8 °F 60.8 °F 45% 30.07 in 10.0 mi SW 9.2 mph - N/A   Scattered Clouds
4:15 PM 84.6 °F 84.8 °F 61.2 °F 45% 30.07 in 10.0 mi SW 8.1 mph - N/A   Scattered Clouds
4:35 PM 84.6 °F 84.6 °F 60.6 °F 44% 30.07 in 10.0 mi SW 6.9 mph - N/A   Clear
4:55 PM 84.6 °F 84.8 °F 60.8 °F 45% 30.07 in 10.0 mi SW 4.6 mph - N/A   Clear
5:15 PM 84.6 °F 84.6 °F 60.3 °F 44% 30.06 in 10.0 mi WSW 4.6 mph - N/A   Clear
5:35 PM 83.5 °F 83.6 °F 60.3 °F 45% 30.07 in 10.0 mi SW 4.6 mph - N/A   Clear
5:55 PM 83.3 °F 83.5 °F 60.6 °F 46% 30.06 in 10.0 mi SW 4.6 mph - N/A   Clear
6:15 PM 83.3 °F 84.3 °F 62.6 °F 50% 30.07 in 10.0 mi SW 4.6 mph - N/A   Clear
6:35 PM 78.3 °F - 65.1 °F 64% 30.07 in 10.0 mi Calm Calm - N/A   Clear
6:55 PM 78.1 °F - 68.4 °F 72% 30.07 in 10.0 mi Calm Calm - N/A   Clear
7:15 PM 77.0 °F - 68.2 °F 74% 30.07 in 10.0 mi Calm Calm - N/A   Clear
7:35 PM 74.5 °F - 67.3 °F 78% 30.07 in 10.0 mi SE 5.8 mph - N/A   Clear
7:55 PM 78.1 °F - 70.0 °F 76% 30.08 in 7.0 mi South 6.9 mph - N/A   Clear
8:15 PM 78.1 °F - 70.0 °F 76% 30.08 in 10.0 mi South 4.6 mph - N/A   Clear
8:35 PM 75.6 °F - 68.4 °F 78% 30.09 in 10.0 mi South 4.6 mph - N/A   Clear
8:55 PM 74.8 °F - 67.6 °F 78% 30.09 in 10.0 mi South 4.6 mph - N/A   Clear
9:15 PM 73.2 °F - 66.2 °F 79% 30.10 in 10.0 mi South 4.6 mph - N/A   Clear
9:35 PM 73.0 °F - 66.2 °F 79% 30.11 in 10.0 mi South 3.5 mph - N/A   Clear
9:55 PM 73.0 °F - 66.7 °F 81% 30.11 in 10.0 mi SSW 3.5 mph - N/A   Clear
10:15 PM 73.0 °F - 67.1 °F 82% 30.11 in 10.0 mi SSW 3.5 mph - N/A   Clear
10:35 PM 73.0 °F - 67.5 °F 83% 30.11 in 10.0 mi SSW 3.5 mph - N/A   Clear
10:55 PM 73.0 °F - 68.0 °F 84% 30.11 in 10.0 mi SSW 4.6 mph - N/A   Clear
11:15 PM 73.0 °F - 68.0 °F 84% 30.11 in 10.0 mi Calm Calm - N/A   Clear
11:35 PM 73.0 °F - 68.0 °F 84% 30.11 in 10.0 mi SSW 3.5 mph - N/A   Clear
11:55 PM 73.0 °F - 68.0 °F 84% 30.11 in 10.0 mi SW 4.6 mph - N/A   Clear